Location: Unspecified
(0.0000°N, 0.0000°E)
Time: 16:56:50
(UTC+00:00)

Interbol-2 - Pass Details

Date: 06 June 2023
Orbit: 911 x 19062 km, 62.8° (Epoch: 28 September)

Event Time Altitude Azimuth Distance (km) Brightness Sun altitude
Rises 16:41:31 0° 136° (SE) 7,346 10.0 17.8°
Reaches altitude 10° 16:57:26 10° 100° (E) 10,075 10.6 14.1°
Maximum altitude 17:12:54 12° 80° (E) 13,080 11.3 10.6°
Drops below altitude 10° 17:38:48 10° 61° (ENE) 17,384 12.0 4.6°
Sets 18:54:13 0° 36° (NE) 24,357 13.0 -12.8°
